Regional Weather Roundup
Issued by NWS Albany, NY

Home | Current Version | Previous Version | Text Only | Print | Product List | Glossary On
Versions: 1 2 3 4 5 6 7 8 9 10 11 12 13 14 15 16 17 18 19 20 21 22 23 24 25 26 27 28 29 30 31 32 33 34 35 36 37 38 39 40 41 42 43 44 45 46 47 48 49 50
000
ASUS41 KALY 281510
RWRALY

NEW YORK STATE HOURLY WEATHER ROUNDUP
NATIONAL WEATHER SERVICE ALBANY NY
1000 AM EST FRI NOV 28 2014

NOTE: "FAIR" INDICATES FEW OR NO CLOUDS BELOW 12,000 FEET WITH NO
SIGNIFICANT WEATHER AND/OR NO OBSTRUCTIONS TO VISIBILITY.

NYZ032-033-038>043-046>054-057>066-NYZ062>081-281600-
EAST


CITY           SKY/WX    TMP DP  RH WIND       PRES   REMARKS
ALBANY         MOSUNNY   29  17  61 NW12      30.16R WCI  19
GLENS FALLS    MOSUNNY   29  18  63 CALM      30.13R
POUGHKEEPSIE   MOSUNNY   30  26  85 CALM      30.17R
NEWBURGH       SUNNY     30  23  74 W7        30.16R WCI  23
MONTGOMERY     SUNNY     31  20  63 NW6       30.16R WCI  25
WHITE PLAINS   MOSUNNY   32  20  61 NW21      30.13S WCI  20
ISLIP          MOSUNNY   36  21  54 NW18G25   30.13R WCI  26
NEW YORK CITY  MOSUNNY   34  21  59 NW20G26   30.18R WCI  23
CENTRAL PARK   SUNNY     34  18  52 VRB6G23   30.20R WCI  29
$$

NYZ005>009-017-018-044>046-055-056-281600-
CENTRAL


CITY           SKY/WX    TMP DP  RH WIND       PRES   REMARKS
FULTON         CLOUDY    26  20  77 W13       30.20S WCI  15
SYRACUSE       FLURRIES  26  19  74 W17       30.21R WCI  13
ROME           LGT SNOW  23  21  92 W3        30.20R VSB 3/4
ELMIRA         MOSUNNY   26  11  52 VRB7      30.23R WCI  18
BINGHAMTON     MOSUNNY   23  12  62 NW14G22   30.14R WCI  11
MONTICELLO     CLOUDY    25  21  86 W10       30.13R VSB 1/2 WCI  15
$$

NYZ026>034-041>043-281600-
NORTH


CITY           SKY/WX    TMP DP  RH WIND       PRES   REMARKS
WATERTOWN      LGT SNOW  27  17  66 NW13      30.18S WCI  16
FORT DRUM      NOT AVBL
MASSENA        CLOUDY    23  14  68 W12       30.17R WCI  12
SARANAC LAKE   CLOUDY    18  13  80 W7        30.03R HAZE    WCI   9
PLATTSBURGH    MOSUNNY   27  15  61 VRB7      30.12R WCI  19
$$

NYZ001>004-010>016-019>021-281600-
WEST


CITY           SKY/WX    TMP DP  RH WIND       PRES   REMARKS
NIAGARA FALLS  LGT SNOW  21  14  74 W15       30.27R WCI   8
BUFFALO        PTSUNNY   23  13  65 W14G21    30.27R WCI  11
DUNKIRK        CLOUDY    25  13  60 W8        30.30R WCI  16
JAMESTOWN      CLOUDY    19  10  68 W12G17    30.22R WCI   7
WELLSVILLE     CLOUDY    20   8  60 NW23G32   30.17R WCI   3
ROCHESTER      LGT SNOW  24  18  77 W15       30.25R WCI  11
PENN YAN       MOSUNNY   25  12  58 W12G21    30.22R WCI  14
$$

             KEY
       WCI = WIND CHILL INDEX
       VSB = VISIBILITY
       HX  = HEAT INDEX
$$



USA.gov is the U.S. government's official web portal to all federal, state and local government web resources and services.